Regional Weather Roundup
Issued by NWS Albany, NY

Home | Current Version | Previous Version | Text Only | Print | Product List | Glossary On
Versions: 1 2 3 4 5 6 7 8 9 10 11 12 13 14 15 16 17 18 19 20 21 22 23 24 25 26 27 28 29 30 31 32 33 34 35 36 37 38 39 40 41 42 43 44 45 46 47 48 49 50
000
ASUS41 KALY 020410
RWRALY

NEW YORK STATE HOURLY WEATHER ROUNDUP
NATIONAL WEATHER SERVICE ALBANY NY
1200 AM EDT THU JUL 02 2015

NOTE: "FAIR" INDICATES FEW OR NO CLOUDS BELOW 12,000 FEET WITH NO
SIGNIFICANT WEATHER AND/OR NO OBSTRUCTIONS TO VISIBILITY.

NYZ032-033-038>043-046>054-057>066-NYZ062>081-020500-
EAST


CITY           SKY/WX    TMP DP  RH WIND       PRES   REMARKS
ALBANY         PTCLDY    66  56  70 W13       29.85R
GLENS FALLS    CLEAR     65  56  72 SW7       29.82S
POUGHKEEPSIE   CLEAR     66  60  81 CALM      29.86S
NEWBURGH       CLEAR     64  63  94 W8        29.89S
MONTGOMERY     CLEAR     62  59  90 SW5       29.88S
WHITE PLAINS   MOCLDY    69  61  75 CALM      29.87R
ISLIP          CLOUDY    74  59  59 W5        29.85R
NEW YORK CITY  CLOUDY    78  58  49 W12G20    29.86R
CENTRAL PARK   MOCLDY    77  58  51 W7        29.90R
$$

NYZ005>009-017-018-044>046-055-056-020500-
CENTRAL


CITY           SKY/WX    TMP DP  RH WIND       PRES   REMARKS
FULTON         CLEAR     59  54  83 W7        29.89R
SYRACUSE       PTCLDY    62  57  83 W10       29.88R
ROME           CLOUDY    60  56  86 NW5       29.88R
ELMIRA         CLEAR     60  58  92 S5        29.92R
BINGHAMTON     CLOUDY    62  56  80 W5        29.93R
MONTICELLO     CLEAR     59  55  88 W5        29.93S
$$

NYZ026>034-041>043-020500-
NORTH


CITY           SKY/WX    TMP DP  RH WIND       PRES   REMARKS
WATERTOWN      CLOUDY    60  57  89 SW3       29.85R
FORT DRUM      NOT AVBL
MASSENA        MOCLDY    59  51  75 W15       29.81R
SARANAC LAKE   LGT RAIN  57  55  93 VRB5      29.81R FOG
PLATTSBURGH    PTCLDY    62  55  77 SW5       29.76R
$$

NYZ001>004-010>016-019>021-020500-
WEST


CITY           SKY/WX    TMP DP  RH WIND       PRES   REMARKS
NIAGARA FALLS  CLOUDY    63  55  75 W7        29.92R
BUFFALO        CLOUDY    63  59  87 W6        29.93R
DUNKIRK        MOCLDY    59  58  96 SW5       29.95R
JAMESTOWN      CLOUDY    59  54  82 CALM      29.98R
WELLSVILLE     CLEAR     57  54  89 W6        29.98S
ROCHESTER      CLOUDY    62  60  93 SW6       29.91R
PENN YAN       CLOUDY    65  58  78 SW12      29.92R
$$

             KEY
       WCI = WIND CHILL INDEX
       VSB = VISIBILITY
       HX  = HEAT INDEX
$$



USA.gov is the U.S. government's official web portal to all federal, state and local government web resources and services.